Orbital Elements at Epoch 2459000.5 (2020-May-31.0) TDB
Reference: JPL 18 (heliocentric ecliptic J2000)
Element | Value | Uncertainty (1-sigma) | Units |
e | .1183796953181121 | 5.8469e-08 | |
a | 2.615305457128194 | 2.474e-08 | au |
q | 2.305706393949563 | 1.5343e-07 | au |
i | 12.52354158438424 | 6.7481e-06 | deg |
node | 286.3592456592147 | 2.7713e-05 | deg |
peri | 352.7419265932759 | 3.8985e-05 | deg |
M | 180.2671384660896 | 2.7906e-05 | deg |
tp | 2459771.771076049511 (2022-Jul-11.27107605) | 0.0001212 | TDB |
period | 1544.834845493394 4.23 | 2.1921e-05 6.002e-08 | d yr |
n | .2330346192346679 | 3.3067e-09 | deg/d |
Q | 2.924904520306825 | 2.7669e-08 | au |
|
| | Orbit Determination Parameters
Additional Information
|